DateTimeUTC,F1_A11,F1_S11,BsB_S11,BsG_S11,BsR_S11,BbsB_S11,BbsG_S11,BbsR_S11,BaB_A11,BaG_A11,BaR_A11,Tu_S11,T_S11,Uu_S11,U_S11,P_S11,T1_A11
2021-08-16T09:00:00Z,00000200,20000000,,,,,,,-000.00,-000.03,-000.24,18.4,25.0,08.9,05.9,0674.8,30.9
2021-08-16T09:01:00Z,00000200,20000000,,,,,,,-000.15,-000.16,0000.05,18.4,25.1,08.9,05.9,0674.8,30.9
2021-08-16T09:02:00Z,00000200,20000000,,,,,,,0000.05,-000.17,-000.15,18.4,25.1,08.9,05.9,0674.8,30.9
2021-08-16T09:03:00Z,00000200,60000000,,,,,,,0000.10,0000.25,0000.15,18.4,25.1,08.9,05.9,0674.8,30.9
2021-08-16T09:04:00Z,00000200,40000000,0001.68,0001.33,0000.51,0000.48,0000.39,0000.30,0000.40,0000.11,0000.44,18.6,24.9,08.5,05.8,0675.7,30.9
2021-08-16T09:05:00Z,00000200,00000000,0001.54,0001.35,0000.58,-000.03,-000.02,0000.15,0000.37,0000.62,0000.34,18.6,24.9,08.5,05.8,0675.7,30.9
2021-08-16T09:06:00Z,00000200,00000000,0001.24,0001.36,0000.50,0000.06,-000.02,0000.06,0000.53,0000.16,0000.09,18.6,24.8,08.6,05.9,0675.8,30.9
2021-08-16T09:07:00Z,00000200,00000000,0001.00,0001.33,0000.76,0000.16,0000.46,0000.31,0000.13,0000.40,0000.12,18.6,24.8,08.6,05.9,0675.7,30.9
2021-08-16T09:08:00Z,00000200,00000000,0001.65,0001.17,0000.69,0000.50,0000.40,-000.00,0000.42,0000.13,0000.15,18.6,24.8,08.6,05.9,0675.7,30.9
2021-08-16T09:09:00Z,00000200,00000000,0000.63,0000.87,0000.94,0000.29,0000.14,0000.25,0000.34,0000.44,0000.25,18.6,24.8,08.7,06.0,0675.7,30.9
2021-08-16T09:10:00Z,00000200,00000000,0000.85,0001.36,0000.80,-000.01,-000.03,0000.38,-000.09,0000.19,0000.18,18.6,24.8,08.5,05.8,0675.7,30.9
2021-08-16T09:11:00Z,00000200,00000000,0001.54,0001.28,0000.83,0000.37,0000.04,0000.22,0000.51,0000.64,0000.40,18.6,24.8,08.5,05.8,0675.7,30.9
2021-08-16T09:12:00Z,00000200,00000000,0001.21,0001.35,0000.84,-000.23,0000.25,0000.46,0000.39,-000.08,0000.01,18.6,24.8,08.5,05.8,0675.6,30.9
2021-08-16T09:13:00Z,00000200,00000000,0001.94,0001.41,0000.82,-000.01,0000.19,0000.19,0000.16,0000.24,0000.18,18.6,24.8,08.5,05.8,0675.6,30.9
2021-08-16T09:14:00Z,00000200,00000000,0000.88,0001.56,0000.84,0000.57,0000.03,0000.22,0000.58,0000.70,0000.44,18.6,24.8,08.6,05.9,0675.6,30.9
2021-08-16T09:15:00Z,00000200,00000000,0001.15,0001.20,0000.64,0000.30,0000.27,0000.29,0000.41,0000.23,0000.38,18.6,24.8,08.6,05.9,0675.6,30.9
2021-08-16T09:16:00Z,00000200,00000000,0001.23,0001.28,0000.55,0000.22,0000.12,0000.34,0000.27,0000.23,0000.21,18.6,24.8,08.8,06.0,0675.6,30.9
2021-08-16T09:17:00Z,00000200,00000000,0001.48,0001.22,0000.75,0000.31,0000.15,0000.53,0000.21,0000.23,-000.02,18.6,24.8,08.7,06.0,0675.6,30.9
2021-08-16T09:18:00Z,00000200,00000000,0000.66,0001.69,0000.96,-000.27,0000.20,0000.07,0000.20,0000.03,0000.42,18.6,24.8,08.4,05.8,0675.6,30.9
2021-08-16T09:19:00Z,00000200,00000000,0001.40,0001.67,0000.70,0000.81,0000.01,-000.00,0000.57,0000.71,0000.08,18.6,24.8,08.4,05.8,0675.5,30.9
2021-08-16T09:20:00Z,00000200,00000000,0001.81,0001.39,0000.85,-000.49,0000.58,0000.63,0000.42,0000.22,0000.27,18.6,24.8,08.4,05.8,0675.5,30.9
2021-08-16T09:21:00Z,00000200,00000000,0001.43,0001.14,0000.53,-000.26,0000.37,-000.10,0000.04,0000.06,0000.08,18.7,24.8,08.3,05.7,0675.5,30.9
2021-08-16T09:22:00Z,00000200,00000000,0001.32,0001.53,0000.38,-000.05,0000.25,0000.31,0000.38,0000.22,0000.02,18.6,24.8,08.3,05.7,0675.5,30.9
2021-08-16T09:23:00Z,00000200,00000000,0002.02,0001.31,0000.83,0000.09,0000.24,0000.03,0000.09,0000.51,0000.34,18.7,24.8,08.3,05.7,0675.5,30.9
2021-08-16T09:24:00Z,00000200,00000000,0001.37,0001.20,0001.03,0000.06,0000.05,0000.18,0000.55,0000.06,0000.22,18.6,24.8,08.2,05.7,0675.5,30.9
2021-08-16T09:25:00Z,00000200,00000000,0001.39,0001.44,0001.13,0000.19,-000.00,-000.11,0000.81,0000.97,0000.68,18.7,24.8,08.2,05.6,0675.5,30.9
2021-08-16T09:26:00Z,00000200,00000000,0001.68,0001.15,0000.66,-000.05,0000.18,0000.50,0000.44,0000.00,0000.21,18.7,24.8,08.2,05.7,0675.5,30.9
2021-08-16T09:27:00Z,00000200,00000000,0000.49,0001.53,0000.39,0000.14,0000.33,0000.10,-000.21,0000.42,0000.11,18.7,24.8,08.2,05.6,0675.5,30.9
2021-08-16T09:28:00Z,00000200,00000000,0001.78,0001.67,0000.85,-000.09,0000.20,0000.50,0000.47,-000.06,-000.14,18.7,24.8,08.1,05.6,0675.5,30.9
2021-08-16T09:29:00Z,00000200,00000000,0001.50,0001.25,0000.89,0000.07,0000.13,0000.18,0000.51,0000.91,0000.77,18.8,24.9,08.1,05.6,0675.5,30.9
2021-08-16T09:30:00Z,00000200,00000000,0001.57,0000.98,0000.97,-000.19,0000.03,0000.31,0000.46,0000.01,0000.15,18.8,24.9,08.1,05.6,0675.5,30.9
2021-08-16T09:31:00Z,00000200,00000000,0001.35,0001.43,0000.76,0000.29,0000.12,0000.24,0000.33,0000.38,0000.38,18.8,24.9,08.0,05.5,0675.4,30.9
2021-08-16T09:32:00Z,00000200,00000000,0001.43,0001.41,0000.39,0000.44,0000.33,0000.06,0000.36,0000.36,0000.07,18.8,24.9,08.0,05.6,0675.4,30.9
2021-08-16T09:33:00Z,00000200,00000000,0000.63,0001.47,0000.88,0000.07,0000.03,0000.27,0000.46,0000.77,0000.61,18.8,24.9,08.0,05.5,0675.4,30.9
2021-08-16T09:34:00Z,00000200,00000000,0001.21,0001.73,0000.70,-000.55,-000.00,0000.08,0000.41,0000.21,0000.35,18.8,24.9,08.0,05.5,0675.4,30.9
2021-08-16T09:35:00Z,00000200,00000000,0001.64,0001.48,0000.88,-000.24,0000.17,0000.06,0000.29,-000.00,0000.06,18.8,24.9,08.0,05.5,0675.4,30.9
2021-08-16T09:36:00Z,00000200,00000000,0002.06,0001.30,0000.82,0000.03,0000.07,0000.41,0000.67,0000.70,0000.47,18.8,24.9,08.0,05.5,0675.4,30.9
2021-08-16T09:37:00Z,00000200,00000000,0002.13,0001.62,0000.78,0000.30,0000.08,0000.27,0000.75,0000.51,0000.52,18.8,24.9,08.1,05.6,0675.4,30.9
2021-08-16T09:38:00Z,00000200,00000000,0001.16,0001.35,0000.89,-000.08,0000.33,0000.40,0000.01,0000.29,-000.23,18.8,24.9,08.0,05.5,0675.4,30.9
2021-08-16T09:39:00Z,00000200,00000000,0001.74,0001.45,0000.79,-000.24,0000.35,-000.01,0001.02,0000.36,0000.36,18.8,24.9,08.0,05.5,0675.4,30.9
2021-08-16T09:40:00Z,00000200,00000000,0000.52,0001.27,0000.60,0000.31,0000.15,0000.24,-000.36,0000.37,0000.21,18.8,24.9,08.0,05.5,0675.4,30.9
2021-08-16T09:41:00Z,00000200,00000000,0000.01,0000.82,0000.33,-000.39,0000.21,0000.38,0000.02,0000.15,0000.19,18.8,24.8,07.8,05.4,0675.4,30.9
2021-08-16T09:42:00Z,00000200,00000000,0000.31,0001.13,0000.34,-000.68,0000.01,0000.27,0000.78,0000.06,0000.25,18.8,24.9,07.9,05.4,0675.4,30.9
2021-08-16T09:43:00Z,00000200,00000000,0000.40,0000.90,0000.42,0000.35,0000.37,0000.23,-000.11,0000.21,0000.22,18.8,24.9,07.8,05.4,0675.4,30.9
2021-08-16T09:44:00Z,00000200,00000000,0001.27,0000.96,0000.54,-000.44,0000.08,0000.22,0000.55,0000.46,0000.24,18.8,24.9,07.8,05.4,0675.4,30.9
2021-08-16T09:45:00Z,00000200,00000000,0000.32,0000.99,0000.51,0000.61,0000.27,0000.09,0000.68,0000.61,0000.47,18.8,24.9,07.8,05.4,0675.4,30.9
2021-08-16T09:46:00Z,00000200,00000000,0000.88,0001.03,0000.82,-000.33,0000.33,0000.41,-000.02,-000.06,0000.08,18.8,24.9,07.8,05.4,0675.4,30.9
2021-08-16T09:47:00Z,00000200,00000000,0001.16,0000.62,0000.53,-000.38,-000.08,0000.37,0000.37,0000.51,-000.10,18.8,24.8,07.7,05.3,0675.4,30.9
2021-08-16T09:48:00Z,00000200,00000000,0001.29,0001.13,0000.59,0000.01,0000.22,0000.18,0000.51,0000.23,0000.08,18.8,24.9,07.8,05.4,0675.4,30.9
2021-08-16T09:49:00Z,00000200,00000000,0000.80,0001.11,0000.43,0000.03,0000.16,0000.05,0000.23,0000.32,0000.42,18.8,24.9,07.8,05.3,0675.4,30.9
2021-08-16T09:50:00Z,00000200,00000000,0000.68,0001.28,0000.89,0000.11,0000.07,0000.35,0000.66,0000.82,0000.51,18.8,24.8,07.9,05.4,0675.4,30.9
2021-08-16T09:51:00Z,00000200,00000000,0000.29,0001.02,0000.99,-000.19,0000.22,0000.08,0000.24,-000.08,0000.31,18.8,24.8,08.0,05.5,0675.4,30.9
2021-08-16T09:52:00Z,00000200,00000000,0001.36,0001.11,0000.60,0000.41,0000.49,0000.68,0000.73,0000.58,0000.46,18.8,24.8,08.0,05.5,0675.4,30.9
2021-08-16T09:53:00Z,00000200,00000000,0001.38,0001.41,0000.88,0000.69,0000.14,0000.10,0001.11,0001.12,0000.93,18.8,24.8,08.1,05.6,0675.4,30.9
2021-08-16T09:54:00Z,00000200,00000000,0001.51,0001.31,0000.73,0000.50,0000.16,0000.37,0000.54,0000.59,0000.46,18.8,24.8,08.5,05.9,0675.4,30.9
2021-08-16T09:55:00Z,00000200,00000000,0001.55,0001.17,0000.93,-000.21,0000.44,0000.47,0000.28,0000.28,-000.06,18.8,24.8,08.3,05.7,0675.4,30.9
2021-08-16T09:56:00Z,00000200,00000000,0001.22,0001.65,0000.64,0000.16,0000.32,0000.50,0000.71,0000.69,0000.54,18.8,24.8,08.3,05.7,0675.4,30.9
2021-08-16T09:57:00Z,00000200,40000000,,,,,,,0000.02,0000.00,0000.37,18.8,24.9,08.3,05.7,0675.3,30.9
2021-08-16T09:58:00Z,00000200,60000000,,,,,,,-000.49,-000.69,-000.63,18.5,25.0,08.3,05.6,0674.3,30.9
2021-08-16T09:59:00Z,00000200,20000000,,,,,,,0000.02,0000.23,-000.03,18.5,25.1,08.2,05.5,0674.3,30.9
